Kuchera_Ratio
0.0 0.0 0.0 0.0 0.0 0.0 0.0 0.0 0.0 0.0 0.0 0.0 0.0 0.0 0.0 0.0 0.0 0.0 0.0 0.0 0.0 0.0 0.0 0.0 0.0 0.0 0.0
0.0 0.0 0.0 0.0 0.0 0.0 0.0 0.0 0.0 0.0 0.0 0.0 0.0 0.0 0.0 0.0 0.0 0.0 0.0 0.0 0.0 0.0 0.0 0.0 0.0 0.0 0.0
0.0 0.0 0.0 0.0 0.0 0.0 0.0 0.0 0.0 0.0 0.0 0.0 0.0 0.0 0.0 0.0 0.0 0.0 0.0 0.0 0.0 0.0 0.0 0.0 0.0 0.0 0.0
0.0 0.0 0.0 0.0 0.0 0.0 0.0 0.0 0.0 0.0 0.0 0.0 0.0 0.0 0.0 0.0 0.0 0.0 0.0 0.0 0.0 0.0 0.0 0.0 0.0 0.0 0.0
0.0 0.0 0.0 0.0 0.0 0.0 0.0 0.0 0.0 0.0 0.0 0.0 0.0 0.0 0.0 0.0 0.0 0.0 0.0 0.0 0.0 0.0 0.0 0.0 0.0 0.0 0.0
0.0 0.0 0.0 0.0 0.0 0.0 0.0 0.0 0.0 0.0 0.0 0.0 0.0 0.0 0.0 0.0 0.0 0.0 0.0 0.0 0.0 0.0 0.0 0.0 0.0 0.0 0.0
0.0 0.0 0.0 0.0 0.0 0.0 0.0 0.0 0.0 0.0 0.0 0.1 0.0 0.0 0.0 0.0 0.0 0.0 0.0 0.0 0.0 0.0 0.0 0.0 0.0 0.0 0.0
0.0 0.0 0.0 0.0 0.0 0.0 0.0 0.0 0.0 0.0 0.0 3.2 0.0 0.0 0.0 0.0 0.0 0.0 0.0 0.0 0.0 0.0 0.0 0.0 0.0 0.0 0.0
0.0 0.0 0.0 0.0 0.0 0.0 1.5 4.4 3.5 0.0 2.2 0.8 0.0 0.7 0.9 1.5 0.0 0.0 0.0 0.0 0.0 0.0 0.0 0.0 0.0 0.0 0.0
0.0 0.0 0.0 0.0 0.0 0.0 0.9 4.0 3.6 2.9 0.9 3.7 3.6 3.9 6.6 5.2 3.9 0.0 0.0 0.0 0.0 0.0 0.0 0.0 0.0 2.3 3.6
0.0 0.0 0.0 0.0 0.0 0.0 0.4 2.0 5.2 3.7 2.8 4.1 6.7 6.8 7.0 8.2 6.6 6.6 2.0 1.5 1.5 0.6 0.0 0.0 0.0 0.4 7.6
0.0 0.0 0.0 0.0 0.0 1.3 2.2 1.3 0.5 4.3 1.9 5.8 6.6 7.2 8.5 9.2 8.2 8.3 8.2 7.1 5.2 9.2 5.5 2.2 0.0 0.0 0.0
1.9 1.3 0.0 0.0 0.8 3.3 4.4 4.8 7.2 4.7 4.2 7.7 8.2 9.5 9.8 11.0 9.9 7.6 8.8 8.4 9.4 9.8 9.5 9.8 9.5 7.7 9.1
1.8 1.4 0.7 2.0 4.5 5.9 7.3 9.3 11.6 10.3 8.7 8.0 9.3 9.9 11.7 11.0 10.5 10.8 8.7 12.1 11.0 10.6 10.7 10.0 6.8 6.6 6.9
4.5 3.8 4.1 6.2 6.7 5.9 7.1 8.0 10.9 11.1 10.4 10.5 8.9 9.1 10.9 12.4 12.3 10.6 10.8 9.7 9.7 11.0 11.3 12.4 9.0 7.8 7.9
5.7 5.5 6.0 7.2 7.4 7.6 7.7 8.4 10.0 9.0 9.4 10.0 12.0 12.8 12.5 11.4 7.3 11.6 10.6 11.2 10.9 12.2 12.5 13.3 12.3 8.1 8.4
6.3 6.3 6.5 7.2 7.0 7.8 8.4 8.8 9.7 8.9 8.7 9.6 11.7 12.9 13.7 14.0 12.2 4.4 12.3 11.5 12.3 12.9 13.0 13.1 13.1 10.0 9.5